Weather History for Truth Or Consequences, NM

Change the Weather History Date:

Wednesday, March 26, 2014

  Actual Average Record
Temperature  
Mean Temperature 57 °F -  
Max Temperature 73 °F 69 °F 81 °F (2012)
Min Temperature 40 °F 40 °F 30 °F (1997)
Degree Days  
Heating Degree Days 8    
Month to date heating degree days 283  
Since 1 July heating degree days 2699  
Cooling Degree Days 0    
Month to date cooling degree days 0  
Year to date cooling degree days 1  
Growing Degree Days 6 (Base 50)    
Moisture  
Dew Point 25 °F    
Average Humidity 44    
Maximum Humidity 79    
Minimum Humidity 9    
Precipitation  
Precipitation 0.00 in - 0.07 in (1999)
Month to date precipitation 0.09  
Year to date precipitation 0.09  
Sea Level Pressure  
Sea Level Pressure 29.67 in    
Wind  
Wind Speed 15 mph (SW)    
Max Wind Speed 33 mph    
Max Gust Speed 47 mph    
Visibility 10 miles    
Events      
T = Trace of Precipitation, MM = Missing Value Source: NWS Daily Summary

Daily Weather History Graph

Daily Weather History Graph

Search for Another Location

Airport:

Trip Planner

Search our weather history database for the weather conditions in past years. The results will help you decide how hot, cold, wet, or windy it might be!

Date:

Astronomy

Mar. 26, 2014 Rise Set
Actual Time 7:04 AM MDT 7:25 PM MDT
Civil Twilight 6:39 AM MDT 7:49 PM MDT
Nautical Twilight 6:10 AM MDT 8:19 PM MDT
Astronomical Twilight 5:41 AM MDT 8:48 PM MDT
Moon 4:02 AM MDT (3/26) 3:18 PM MDT (3/26)
Length of Visible Light 13h 10m
Length of Day
12h 20m
Waning Crescent, 21% of the Moon is Illuminated
Mar 26
Waning Crescent
Mar 30
New
Apr 7
First Quarter
Apr 15
Full
Apr 22
Last Quarter

Hourly Weather History & Observations

Time (MDT) Temp. Windchill Dew Point Humidity Pressure Visibility Wind Dir Wind Speed Gust Speed Precip Events Conditions
12:53 AM 52.0 °F - 42.1 °F 69% 29.79 in 10.0 mi SE 5.8 mph - 0.00 in   Overcast
1:53 AM 51.1 °F - 39.9 °F 66% 29.75 in 10.0 mi Calm Calm - N/A   Clear
2:53 AM 48.9 °F - 39.9 °F 71% 29.74 in 10.0 mi Calm Calm - N/A   Clear
3:53 AM 45.0 °F 43.5 °F 37.9 °F 76% 29.73 in 10.0 mi WNW 3.5 mph - N/A   Clear
4:53 AM 43.0 °F 37.7 °F 35.1 °F 74% 29.73 in 10.0 mi WNW 9.2 mph - N/A   Clear
5:53 AM 43.0 °F 38.2 °F 34.0 °F 71% 29.74 in 10.0 mi WNW 8.1 mph - N/A   Clear
6:53 AM 39.9 °F 35.8 °F 33.1 °F 77% 29.76 in 10.0 mi West 5.8 mph - N/A   Clear
7:53 AM 43.0 °F 38.8 °F 33.1 °F 68% 29.78 in 10.0 mi West 6.9 mph - N/A   Clear
8:53 AM 50.0 °F - 36.0 °F 59% 29.78 in 10.0 mi SSW 4.6 mph - N/A   Clear
9:53 AM 55.0 °F - 37.9 °F 53% 29.78 in 10.0 mi SSW 8.1 mph - N/A   Clear
10:53 AM 60.1 °F - 37.0 °F 42% 29.76 in 10.0 mi South 13.8 mph - N/A   Clear
11:53 AM 63.0 °F - 34.0 °F 34% 29.73 in 10.0 mi South 12.7 mph - N/A   Clear
12:53 PM 66.0 °F - 30.0 °F 26% 29.67 in 10.0 mi SSW 12.7 mph 26.5 mph N/A   Clear
1:51 PM 69.8 °F - 21.2 °F 16% 29.80 in 10.0 mi SSW 19.6 mph 28.8 mph N/A   Partly Cloudy
1:53 PM 70.0 °F - 21.0 °F 16% 29.62 in 10.0 mi SSW 18.4 mph 28.8 mph N/A   Partly Cloudy
2:53 PM 71.1 °F - 12.9 °F 11% 29.58 in 10.0 mi SW 23.0 mph 36.8 mph N/A   Clear
3:53 PM 72.0 °F - 9.0 °F 9% 29.57 in 10.0 mi West 21.9 mph 31.1 mph N/A   Clear
4:53 PM 70.0 °F - 10.0 °F 10% 29.58 in 10.0 mi WSW 17.3 mph 34.5 mph N/A   Clear
5:53 PM 69.1 °F - 10.0 °F 10% 29.56 in 10.0 mi WSW 29.9 mph 44.9 mph N/A   Clear
6:53 PM 68.0 °F - 15.1 °F 13% 29.55 in 10.0 mi WSW 18.4 mph 40.3 mph N/A   Clear
7:53 PM 64.9 °F - 14.0 °F 14% 29.54 in 10.0 mi SW 20.7 mph 27.6 mph N/A   Clear
8:53 PM 64.0 °F - 14.0 °F 14% 29.53 in 10.0 mi SW 23.0 mph 26.5 mph N/A   Clear
9:53 PM 63.0 °F - 12.0 °F 14% 29.54 in 10.0 mi WSW 25.3 mph 31.1 mph N/A   Clear
10:53 PM 62.1 °F - 15.1 °F 16% 29.55 in 10.0 mi WSW 25.3 mph 34.5 mph N/A   Clear
11:53 PM 61.0 °F - 17.1 °F 18% 29.55 in 10.0 mi WSW 20.7 mph 34.5 mph N/A   Clear